Time,TemperatureF,DewpointF,PressureIn,WindDirection,WindDirectionDegrees,WindSpeedMPH,WindSpeedGustMPH,Humidity,HourlyPrecipIn,Conditions,Clouds,dailyrainin,SoftwareType,DateUTC
2013-06-24 00:05:00,67.4,63.1,29.89,SW,217,0.0,0.0,86,0.00,,,0.00,Wunderground v.1.15,2013-06-24 05:05:00,
2013-06-24 00:10:00,67.1,63.1,29.89,SW,217,0.0,0.0,87,0.00,,,0.00,Wunderground v.1.15,2013-06-24 05:10:00,
2013-06-24 00:20:00,66.6,62.9,29.89,SW,218,0.0,0.0,88,0.00,,,0.00,Wunderground v.1.15,2013-06-24 05:20:00,
2013-06-24 00:25:00,66.4,62.7,29.89,SW,217,0.0,0.0,88,0.00,,,0.00,Wunderground v.1.15,2013-06-24 05:25:00,
2013-06-24 00:35:00,66.1,62.8,29.90,SW,217,0.0,0.0,89,0.00,,,0.00,Wunderground v.1.15,2013-06-24 05:35:00,
2013-06-24 00:46:00,65.8,62.8,29.90,SW,217,0.0,0.0,90,0.00,,,0.00,Wunderground v.1.15,2013-06-24 05:46:00,
2013-06-24 00:55:00,65.4,62.4,29.90,SW,217,0.0,0.0,90,0.00,,,0.00,Wunderground v.1.15,2013-06-24 05:55:00,
2013-06-24 01:00:00,65.2,62.2,29.90,SW,217,0.0,0.0,90,0.00,,,0.00,Wunderground v.1.15,2013-06-24 06:00:00,
2013-06-24 01:05:00,65.1,62.4,29.90,SW,217,0.0,0.0,91,0.00,,,0.00,Wunderground v.1.15,2013-06-24 06:05:00,
2013-06-24 01:16:00,64.9,62.5,29.90,SW,218,0.0,0.0,92,0.00,,,0.00,Wunderground v.1.15,2013-06-24 06:16:00,
2013-06-24 01:25:00,64.7,62.3,29.90,SW,217,0.0,0.0,92,0.00,,,0.00,Wunderground v.1.15,2013-06-24 06:25:00,
2013-06-24 01:36:00,64.4,62.0,29.90,SW,217,0.0,0.0,92,0.00,,,0.00,Wunderground v.1.15,2013-06-24 06:36:00,
2013-06-24 01:45:00,64.1,62.0,29.91,SW,218,0.0,0.0,93,0.00,,,0.00,Wunderground v.1.15,2013-06-24 06:45:00,
2013-06-24 01:55:00,64.0,62.2,29.91,SW,217,0.0,0.0,94,0.00,,,0.00,Wunderground v.1.15,2013-06-24 06:55:00,
2013-06-24 02:00:00,63.9,62.1,29.91,SW,217,0.0,0.0,94,0.00,,,0.00,Wunderground v.1.15,2013-06-24 07:00:00,
2013-06-24 02:05:00,63.8,62.0,29.90,SW,217,0.0,0.0,94,0.00,,,0.00,Wunderground v.1.15,2013-06-24 07:05:00,
2013-06-24 02:15:00,63.7,61.9,29.90,SW,217,0.0,0.0,94,0.00,,,0.00,Wunderground v.1.15,2013-06-24 07:15:00,
2013-06-24 02:25:00,63.6,61.8,29.90,SW,217,0.0,0.0,94,0.00,,,0.00,Wunderground v.1.15,2013-06-24 07:25:00,
2013-06-24 02:40:00,63.3,61.8,29.90,SW,217,0.0,0.0,95,0.00,,,0.00,Wunderground v.1.15,2013-06-24 07:40:00,
2013-06-24 02:51:00,63.3,61.8,29.90,SW,217,0.0,0.0,95,0.00,,,0.00,Wunderground v.1.15,2013-06-24 07:51:00,
2013-06-24 03:00:00,63.2,61.7,29.90,SW,217,0.0,0.0,95,0.00,,,0.00,Wunderground v.1.15,2013-06-24 08:00:00,
2013-06-24 03:05:00,63.2,61.7,29.89,SW,217,0.0,0.0,95,0.00,,,0.00,Wunderground v.1.15,2013-06-24 08:05:00,
2013-06-24 03:15:00,63.1,61.6,29.89,SW,217,0.0,0.0,95,0.00,,,0.00,Wunderground v.1.15,2013-06-24 08:15:00,
2013-06-24 03:21:00,63.0,61.5,29.89,SW,217,0.0,0.0,95,0.00,,,0.00,Wunderground v.1.15,2013-06-24 08:21:00,
2013-06-24 03:30:00,62.9,61.4,29.88,SW,217,0.0,0.0,95,0.00,,,0.00,Wunderground v.1.15,2013-06-24 08:30:00,
2013-06-24 03:35:00,62.8,61.3,29.88,SW,217,0.0,0.0,95,0.00,,,0.00,Wunderground v.1.15,2013-06-24 08:35:00,
2013-06-24 03:44:00,62.6,61.1,29.88,SW,217,0.0,0.0,95,0.00,,,0.00,Wunderground v.1.15,2013-06-24 08:44:00,
2013-06-24 03:50:00,62.5,61.0,29.88,SW,217,0.0,0.0,95,0.00,,,0.00,Wunderground v.1.15,2013-06-24 08:50:00,
2013-06-24 04:00:00,62.7,61.5,29.87,SW,217,0.0,0.0,96,0.00,,,0.00,Wunderground v.1.15,2013-06-24 09:00:00,
2013-06-24 04:05:00,62.7,61.2,29.87,SW,217,0.0,0.0,95,0.00,,,0.00,Wunderground v.1.15,2013-06-24 09:05:00,
2013-06-24 04:15:00,61.9,60.5,29.88,SW,217,0.0,0.0,95,0.00,,,0.00,Wunderground v.1.15,2013-06-24 09:15:00,
2013-06-24 04:25:00,61.9,60.7,29.89,SW,217,0.0,0.0,96,0.00,,,0.00,Wunderground v.1.15,2013-06-24 09:25:00,
2013-06-24 04:35:00,61.8,60.4,29.89,SW,217,0.0,0.0,95,0.00,,,0.00,Wunderground v.1.15,2013-06-24 09:35:00,
2013-06-24 04:45:00,61.7,60.5,29.89,SW,217,0.0,0.0,96,0.00,,,0.00,Wunderground v.1.15,2013-06-24 09:45:00,
2013-06-24 04:55:00,61.5,60.3,29.90,SW,217,0.0,0.0,96,0.00,,,0.00,Wunderground v.1.15,2013-06-24 09:55:00,
2013-06-24 05:05:00,61.7,60.5,29.90,SW,217,0.0,0.0,96,0.00,,,0.00,Wunderground v.1.15,2013-06-24 10:05:00,
2013-06-24 05:15:00,61.6,60.4,29.90,SW,217,0.0,0.0,96,0.00,,,0.00,Wunderground v.1.15,2013-06-24 10:15:00,
2013-06-24 05:20:00,61.6,60.4,29.90,SW,217,0.0,0.0,96,0.00,,,0.00,Wunderground v.1.15,2013-06-24 10:20:00,
2013-06-24 05:30:00,61.5,60.3,29.90,SW,217,0.0,0.0,96,0.00,,,0.00,Wunderground v.1.15,2013-06-24 10:30:00,
2013-06-24 05:35:00,61.5,60.3,29.90,SW,217,0.0,0.0,96,0.00,,,0.00,Wunderground v.1.15,2013-06-24 10:35:00,
2013-06-24 05:45:00,61.7,60.8,29.90,SW,217,0.0,0.0,97,0.00,,,0.00,Wunderground v.1.15,2013-06-24 10:45:00,
2013-06-24 05:55:00,61.7,60.8,29.90,SW,217,0.0,0.0,97,0.00,,,0.00,Wunderground v.1.15,2013-06-24 10:55:00,
2013-06-24 06:00:00,61.7,60.8,29.89,SW,217,0.0,0.0,97,0.00,,,0.00,Wunderground v.1.15,2013-06-24 11:00:00,
2013-06-24 06:05:00,61.8,60.9,29.89,SW,217,0.0,0.0,97,0.00,,,0.00,Wunderground v.1.15,2013-06-24 11:05:00,
2013-06-24 06:20:00,62.4,61.2,29.90,SW,217,0.0,0.0,96,0.00,,,0.00,Wunderground v.1.15,2013-06-24 11:20:00,
2013-06-24 06:25:00,62.5,61.3,29.90,SW,217,0.0,0.0,96,0.00,,,0.00,Wunderground v.1.15,2013-06-24 11:25:00,
2013-06-24 06:35:00,62.9,61.7,29.90,SW,217,0.0,0.0,96,0.00,,,0.00,Wunderground v.1.15,2013-06-24 11:35:00,
2013-06-24 06:45:00,63.9,63.0,29.91,SW,217,0.0,0.0,97,0.00,,,0.00,Wunderground v.1.15,2013-06-24 11:45:00,
2013-06-24 07:05:00,67.3,64.6,29.91,SW,217,0.0,0.0,91,0.00,,,0.00,Wunderground v.1.15,2013-06-24 12:05:00,
2013-06-24 07:15:00,69.1,64.4,29.90,SSW,212,0.0,0.0,85,0.00,,,0.00,Wunderground v.1.15,2013-06-24 12:15:00,
2013-06-24 07:25:00,70.7,65.3,29.90,SSW,212,0.0,0.0,83,0.00,,,0.00,Wunderground v.1.15,2013-06-24 12:25:00,
2013-06-24 07:35:00,71.6,64.7,29.88,SSE,147,0.0,0.0,79,0.00,,,0.00,Wunderground v.1.15,2013-06-24 12:35:00,
2013-06-24 07:45:00,72.2,64.6,29.87,East,89,1.0,2.0,77,0.00,,,0.00,Wunderground v.1.15,2013-06-24 12:45:00,
2013-06-24 07:51:00,72.6,64.6,29.87,East,81,1.0,1.0,76,0.00,,,0.00,Wunderground v.1.15,2013-06-24 12:51:00,
2013-06-24 08:00:00,73.3,64.5,29.87,East,89,0.0,0.0,74,0.00,,,0.00,Wunderground v.1.15,2013-06-24 13:00:00,
2013-06-24 08:10:00,73.7,64.9,29.87,East,95,1.0,1.0,74,0.00,,,0.00,Wunderground v.1.15,2013-06-24 13:10:00,
2013-06-24 08:20:00,74.3,65.1,29.88,East,80,1.0,1.0,73,0.00,,,0.00,Wunderground v.1.15,2013-06-24 13:20:00,
2013-06-24 08:25:00,74.7,65.5,29.88,East,83,1.0,1.0,73,0.00,,,0.00,Wunderground v.1.15,2013-06-24 13:25:00,
2013-06-24 08:31:00,74.9,65.3,29.89,ESE,113,1.0,2.0,72,0.00,,,0.00,Wunderground v.1.15,2013-06-24 13:31:00,
2013-06-24 08:40:00,75.4,64.5,29.89,ESE,105,1.0,1.0,69,0.00,,,0.00,Wunderground v.1.15,2013-06-24 13:40:00,
2013-06-24 08:50:00,76.0,65.5,29.89,ESE,109,1.0,1.0,70,0.00,,,0.00,Wunderground v.1.15,2013-06-24 13:50:00,
2013-06-24 08:55:00,76.2,65.7,29.89,ESE,108,1.0,1.0,70,0.00,,,0.00,Wunderground v.1.15,2013-06-24 13:55:00,
2013-06-24 09:05:00,76.2,65.7,29.89,ESE,104,1.0,1.0,70,0.00,,,0.00,Wunderground v.1.15,2013-06-24 14:05:00,
2013-06-24 09:16:00,77.1,64.9,29.90,ESE,106,1.0,3.0,66,0.00,,,0.00,Wunderground v.1.15,2013-06-24 14:16:00,
2013-06-24 09:25:00,77.0,66.0,29.90,ESE,118,2.0,2.0,69,0.00,,,0.00,Wunderground v.1.15,2013-06-24 14:25:00,
2013-06-24 09:35:00,77.3,66.7,29.90,ESE,117,1.0,1.0,70,0.00,,,0.00,Wunderground v.1.15,2013-06-24 14:35:00,
2013-06-24 09:45:00,77.7,66.7,29.90,ESE,106,1.0,2.0,69,0.00,,,0.00,Wunderground v.1.15,2013-06-24 14:45:00,
2013-06-24 09:51:00,77.6,65.8,29.90,East,91,2.0,6.0,67,0.00,,,0.00,Wunderground v.1.15,2013-06-24 14:51:00,
2013-06-24 10:00:00,77.6,67.0,29.89,ESE,114,2.0,2.0,70,0.00,,,0.00,Wunderground v.1.15,2013-06-24 15:00:00,
2013-06-24 10:05:00,78.0,67.0,29.89,ESE,117,2.0,2.0,69,0.00,,,0.00,Wunderground v.1.15,2013-06-24 15:05:00,
2013-06-24 10:15:00,78.4,67.4,29.89,ESE,116,1.0,2.0,69,0.00,,,0.00,Wunderground v.1.15,2013-06-24 15:15:00,
2013-06-24 10:20:00,77.8,66.8,29.89,East,93,2.0,2.0,69,0.00,,,0.00,Wunderground v.1.15,2013-06-24 15:20:00,
2013-06-24 10:30:00,77.7,66.7,29.88,ESE,106,1.0,3.0,69,0.00,,,0.00,Wunderground v.1.15,2013-06-24 15:30:00,
2013-06-24 10:40:00,77.8,68.0,29.88,East,89,2.0,2.0,72,0.00,,,0.00,Wunderground v.1.15,2013-06-24 15:40:00,
2013-06-24 10:45:00,78.3,67.7,29.88,East,89,2.0,2.0,70,0.00,,,0.00,Wunderground v.1.15,2013-06-24 15:45:00,
2013-06-24 10:55:00,78.5,67.9,29.88,ESE,110,3.0,3.0,70,0.00,,,0.00,Wunderground v.1.15,2013-06-24 15:55:00,
2013-06-24 11:06:00,80.1,68.6,29.88,ESE,116,1.0,3.0,68,0.00,,,0.00,Wunderground v.1.15,2013-06-24 16:06:00,
2013-06-24 11:15:00,80.5,69.0,29.88,SSE,168,2.0,2.0,68,0.00,,,0.00,Wunderground v.1.15,2013-06-24 16:15:00,
2013-06-24 11:25:00,80.3,68.3,29.87,South,181,1.0,3.0,67,0.00,,,0.00,Wunderground v.1.15,2013-06-24 16:25:00,
2013-06-24 11:31:00,80.8,69.2,29.86,ESE,118,2.0,3.0,68,0.00,,,0.00,Wunderground v.1.15,2013-06-24 16:31:00,
2013-06-24 11:40:00,81.4,69.4,29.86,ESE,122,1.0,1.0,67,0.00,,,0.00,Wunderground v.1.15,2013-06-24 16:40:00,
2013-06-24 11:45:00,81.9,69.4,29.86,South,178,2.0,9.0,66,0.00,,,0.00,Wunderground v.1.15,2013-06-24 16:45:00,
2013-06-24 11:51:00,82.2,70.1,29.86,SSE,164,2.0,2.0,67,0.00,,,0.00,Wunderground v.1.15,2013-06-24 16:51:00,
2013-06-24 12:01:00,81.5,69.0,29.86,East,87,3.0,3.0,66,0.00,,,0.00,Wunderground v.1.15,2013-06-24 17:01:00,
2013-06-24 12:10:00,81.4,69.4,29.85,ESE,112,2.0,4.0,67,0.00,,,0.00,Wunderground v.1.15,2013-06-24 17:10:00,
2013-06-24 12:21:00,80.6,69.9,29.85,ESE,112,3.0,4.0,70,0.00,,,0.00,Wunderground v.1.15,2013-06-24 17:21:00,
2013-06-24 12:30:00,79.4,69.2,29.85,East,94,2.0,3.0,71,0.00,,,0.00,Wunderground v.1.15,2013-06-24 17:30:00,
2013-06-24 12:40:00,78.9,69.5,29.85,East,91,2.0,2.0,73,0.00,,,0.00,Wunderground v.1.15,2013-06-24 17:40:00,
2013-06-24 12:46:00,78.8,69.8,29.85,ESE,117,2.0,2.0,74,0.00,,,0.00,Wunderground v.1.15,2013-06-24 17:46:00,
2013-06-24 12:55:00,78.5,69.9,29.85,SE,128,2.0,3.0,75,0.00,,,0.00,Wunderground v.1.15,2013-06-24 17:55:00,
2013-06-24 13:01:00,78.3,69.7,29.85,ESE,114,2.0,2.0,75,0.00,,,0.00,Wunderground v.1.15,2013-06-24 18:01:00,
2013-06-24 13:10:00,77.8,69.6,29.84,ESE,120,3.0,3.0,76,0.00,,,0.00,Wunderground v.1.15,2013-06-24 18:10:00,
2013-06-24 13:25:00,77.8,70.4,29.84,SSE,152,2.0,2.0,78,0.00,,,0.00,Wunderground v.1.15,2013-06-24 18:25:00,
2013-06-24 13:40:00,77.9,70.5,29.84,SE,131,0.0,0.0,78,0.00,,,0.00,Wunderground v.1.15,2013-06-24 18:40:00,
2013-06-24 13:50:00,78.0,70.6,29.83,SE,136,0.0,0.0,78,0.00,,,0.00,Wunderground v.1.15,2013-06-24 18:50:00,
2013-06-24 14:00:00,77.9,70.9,29.82,ESE,112,1.0,1.0,79,0.00,,,0.00,Wunderground v.1.15,2013-06-24 19:00:00,
2013-06-24 14:05:00,77.8,70.8,29.81,ESE,116,1.0,4.0,79,0.00,,,0.00,Wunderground v.1.15,2013-06-24 19:05:00,
2013-06-24 14:15:00,77.3,71.0,29.81,East,93,4.0,4.0,81,0.00,,,0.00,Wunderground v.1.15,2013-06-24 19:15:00,
2013-06-24 14:25:00,77.9,71.2,29.80,East,97,5.0,6.0,80,0.00,,,0.00,Wunderground v.1.15,2013-06-24 19:25:00,
2013-06-24 14:35:00,78.2,71.2,29.80,East,83,5.0,9.0,79,0.00,,,0.00,Wunderground v.1.15,2013-06-24 19:35:00,
2013-06-24 14:40:00,78.0,71.0,29.80,East,100,5.0,5.0,79,0.00,,,0.00,Wunderground v.1.15,2013-06-24 19:40:00,
2013-06-24 14:45:00,78.1,71.4,29.81,ESE,103,5.0,7.0,80,0.00,,,0.00,Wunderground v.1.15,2013-06-24 19:45:00,
2013-06-24 15:00:00,78.0,71.7,29.81,SE,129,3.0,3.0,81,0.00,,,0.00,Wunderground v.1.15,2013-06-24 20:00:00,
2013-06-24 15:05:00,78.3,72.0,29.81,ESE,119,2.0,3.0,81,0.00,,,0.00,Wunderground v.1.15,2013-06-24 20:05:00,
2013-06-24 15:15:00,78.3,72.3,29.81,SSE,151,1.0,1.0,82,0.00,,,0.00,Wunderground v.1.15,2013-06-24 20:15:00,
2013-06-24 15:25:00,77.4,72.5,29.82,South,184,2.0,2.0,85,0.00,,,0.00,Wunderground v.1.15,2013-06-24 20:25:00,
2013-06-24 15:35:00,77.4,72.5,29.81,SE,146,1.0,2.0,85,0.00,,,0.00,Wunderground v.1.15,2013-06-24 20:35:00,
2013-06-24 15:45:00,77.5,72.3,29.81,South,176,3.0,4.0,84,0.00,,,0.00,Wunderground v.1.15,2013-06-24 20:45:00,
2013-06-24 15:55:00,77.2,72.3,29.82,South,171,4.0,4.0,85,0.00,,,0.00,Wunderground v.1.15,2013-06-24 20:55:00,
2013-06-24 16:00:00,76.9,71.3,29.82,South,175,5.0,12.0,83,0.00,,,0.00,Wunderground v.1.15,2013-06-24 21:00:00,
2013-06-24 16:06:00,76.6,70.7,29.82,South,179,6.0,12.0,82,0.00,,,0.00,Wunderground v.1.15,2013-06-24 21:06:00,
2013-06-24 16:16:00,76.3,70.8,29.82,SSW,198,6.0,9.0,83,0.00,,,0.00,Wunderground v.1.15,2013-06-24 21:16:00,
2013-06-24 16:25:00,76.1,70.6,29.82,SSE,149,4.0,7.0,83,0.00,,,0.00,Wunderground v.1.15,2013-06-24 21:25:00,
2013-06-24 16:30:00,76.1,70.6,29.82,South,181,3.0,3.0,83,0.00,,,0.00,Wunderground v.1.15,2013-06-24 21:30:00,
2013-06-24 16:40:00,75.9,70.7,29.82,South,185,5.0,5.0,84,0.00,,,0.00,Wunderground v.1.15,2013-06-24 21:40:00,
2013-06-24 16:50:00,75.6,70.8,29.82,South,179,7.0,7.0,85,0.00,,,0.00,Wunderground v.1.15,2013-06-24 21:50:00,
2013-06-24 17:05:00,75.5,70.7,29.82,SSW,204,3.0,4.0,85,0.00,,,0.00,Wunderground v.1.15,2013-06-24 22:05:00,
2013-06-24 17:15:00,75.5,71.0,29.82,SW,224,5.0,5.0,86,0.00,,,0.00,Wunderground v.1.15,2013-06-24 22:15:00,
2013-06-24 17:30:00,76.0,70.8,29.81,SSW,212,3.0,3.0,84,0.00,,,0.00,Wunderground v.1.15,2013-06-24 22:30:00,
2013-06-24 17:40:00,76.5,70.6,29.81,SSW,207,2.0,5.0,82,0.00,,,0.00,Wunderground v.1.15,2013-06-24 22:40:00,
2013-06-24 17:51:00,76.8,70.2,29.81,SSW,203,3.0,3.0,80,0.00,,,0.00,Wunderground v.1.15,2013-06-24 22:51:00,
2013-06-24 18:00:00,76.8,69.8,29.81,South,183,3.0,5.0,79,0.00,,,0.00,Wunderground v.1.15,2013-06-24 23:00:00,
2013-06-24 18:05:00,76.7,70.1,29.81,South,191,3.0,5.0,80,0.00,,,0.00,Wunderground v.1.15,2013-06-24 23:05:00,
2013-06-24 18:16:00,76.7,69.7,29.81,South,185,2.0,3.0,79,0.00,,,0.00,Wunderground v.1.15,2013-06-24 23:16:00,
2013-06-24 18:25:00,76.4,69.4,29.81,South,179,1.0,1.0,79,0.00,,,0.00,Wunderground v.1.15,2013-06-24 23:25:00,
2013-06-24 18:31:00,76.4,69.4,29.80,South,181,1.0,1.0,79,0.00,,,0.00,Wunderground v.1.15,2013-06-24 23:31:00,
2013-06-24 18:40:00,76.3,68.9,29.80,South,189,0.0,2.0,78,0.00,,,0.00,Wunderground v.1.15,2013-06-24 23:40:00,
2013-06-24 18:45:00,76.2,68.8,29.80,South,187,1.0,2.0,78,0.00,,,0.00,Wunderground v.1.15,2013-06-24 23:45:00,
2013-06-24 18:51:00,76.0,69.0,29.80,South,190,3.0,3.0,79,0.00,,,0.00,Wunderground v.1.15,2013-06-24 23:51:00,
2013-06-24 19:00:00,75.8,68.8,29.79,South,189,3.0,3.0,79,0.00,,,0.00,Wunderground v.1.15,2013-06-25 00:00:00,
2013-06-24 19:06:00,75.8,68.4,29.79,SSW,194,2.0,3.0,78,0.00,,,0.00,Wunderground v.1.15,2013-06-25 00:06:00,
2013-06-24 19:15:00,75.6,68.6,29.79,SSE,164,1.0,2.0,79,0.00,,,0.00,Wunderground v.1.15,2013-06-25 00:15:00,
2013-06-24 19:20:00,75.6,68.6,29.79,South,179,1.0,1.0,79,0.00,,,0.00,Wunderground v.1.15,2013-06-25 00:20:00,
2013-06-24 19:30:00,75.4,68.1,29.80,South,177,1.0,1.0,78,0.00,,,0.00,Wunderground v.1.15,2013-06-25 00:30:00,
2013-06-24 19:40:00,74.8,67.8,29.79,SSE,152,1.0,3.0,79,0.00,,,0.00,Wunderground v.1.15,2013-06-25 00:40:00,
2013-06-24 19:50:00,74.3,67.7,29.79,ESE,114,1.0,5.0,80,0.00,,,0.00,Wunderground v.1.15,2013-06-25 00:50:00,
2013-06-24 20:00:00,73.9,68.1,29.79,ESE,106,2.0,2.0,82,0.00,,,0.00,Wunderground v.1.15,2013-06-25 01:00:00,
2013-06-24 20:05:00,73.7,67.9,29.79,ESE,115,3.0,3.0,82,0.00,,,0.00,Wunderground v.1.15,2013-06-25 01:05:00,
2013-06-24 20:15:00,73.5,67.7,29.79,SSE,147,1.0,2.0,82,0.00,,,0.00,Wunderground v.1.15,2013-06-25 01:15:00,
2013-06-24 20:21:00,73.3,67.5,29.80,SSE,153,1.0,1.0,82,0.00,,,0.00,Wunderground v.1.15,2013-06-25 01:21:00,
2013-06-24 20:30:00,73.0,67.9,29.79,SSE,149,0.0,0.0,84,0.00,,,0.00,Wunderground v.1.15,2013-06-25 01:30:00,
2013-06-24 20:40:00,72.6,67.8,29.79,ESE,116,1.0,3.0,85,0.00,,,0.00,Wunderground v.1.15,2013-06-25 01:40:00,
2013-06-24 20:50:00,72.5,67.7,29.80,ESE,106,2.0,2.0,85,0.00,,,0.00,Wunderground v.1.15,2013-06-25 01:50:00,
2013-06-24 21:01:00,72.2,67.4,29.79,ESE,119,1.0,1.0,85,0.00,,,0.00,Wunderground v.1.15,2013-06-25 02:01:00,
2013-06-24 21:10:00,71.9,67.5,29.80,ESE,110,1.0,1.0,86,0.00,,,0.00,Wunderground v.1.15,2013-06-25 02:10:00,
2013-06-24 21:15:00,71.8,67.4,29.80,SE,132,1.0,1.0,86,0.00,,,0.00,Wunderground v.1.15,2013-06-25 02:15:00,
2013-06-24 21:25:00,71.7,67.3,29.80,SE,125,0.0,1.0,86,0.00,,,0.00,Wunderground v.1.15,2013-06-25 02:25:00,
2013-06-24 21:40:00,70.9,67.2,29.80,East,92,0.0,0.0,88,0.00,,,0.00,Wunderground v.1.15,2013-06-25 02:40:00,
2013-06-24 21:50:00,70.5,67.1,29.80,East,92,0.0,0.0,89,0.00,,,0.00,Wunderground v.1.15,2013-06-25 02:50:00,
2013-06-24 22:05:00,70.2,67.1,29.81,East,93,0.0,0.0,90,0.00,,,0.00,Wunderground v.1.15,2013-06-25 03:05:00,
2013-06-24 22:35:00,69.4,66.7,29.81,East,97,0.0,1.0,91,0.00,,,0.00,Wunderground v.1.15,2013-06-25 03:35:00,
2013-06-24 22:40:00,69.3,66.9,29.81,East,97,1.0,1.0,92,0.00,,,0.00,Wunderground v.1.15,2013-06-25 03:40:00,
2013-06-24 22:51:00,69.1,66.7,29.81,ESE,112,1.0,1.0,92,0.00,,,0.00,Wunderground v.1.15,2013-06-25 03:51:00,
2013-06-24 22:56:00,69.0,66.6,29.81,East,97,1.0,2.0,92,0.00,,,0.00,Wunderground v.1.15,2013-06-25 03:56:00,
2013-06-24 23:05:00,69.0,66.3,29.82,ESE,102,2.0,2.0,91,0.00,,,0.00,Wunderground v.1.15,2013-06-25 04:05:00,
2013-06-24 23:10:00,69.0,66.3,29.82,ESE,113,1.0,2.0,91,0.00,,,0.00,Wunderground v.1.15,2013-06-25 04:10:00,
2013-06-24 23:15:00,69.0,66.3,29.82,ESE,108,1.0,2.0,91,0.00,,,0.00,Wunderground v.1.15,2013-06-25 04:15:00,
2013-06-24 23:25:00,69.0,66.3,29.82,East,100,2.0,2.0,91,0.00,,,0.00,Wunderground v.1.15,2013-06-25 04:25:00,
2013-06-24 23:35:00,68.7,66.0,29.82,East,85,1.0,2.0,91,0.00,,,0.00,Wunderground v.1.15,2013-06-25 04:35:00,
2013-06-24 23:40:00,68.7,66.3,29.82,ESE,122,1.0,1.0,92,0.00,,,0.00,Wunderground v.1.15,2013-06-25 04:40:00,
2013-06-24 23:50:00,68.6,66.2,29.83,East,83,2.0,2.0,92,0.00,,,0.00,Wunderground v.1.15,2013-06-25 04:50:00,